NOAA 17 DEB, 48710

Orbit data source: Space-Track

NOAA 17 DEB, 48710 is space debris in SSO originally from a launch on Mon, 24 Jun 2002 UTC launched from the Air Force Western Test Range (AFWTR). Debris objects in space refer to the collection of defunct objects orbiting the Earth. Examples of debris include non-operational satellites, rocket bodies, and fragments generated from explosions, collisions, or faulty payload assembly.

Loading next visibility...
Identifier
48710, 2002-032AT
Orbit
SSO
Country
Flag of USUS
Related business
Manufacturer
Unknown
Mission
Spacecraft
Bus & Motor
Unknown
Mass
Unknown
Launch date (UTC)
2002-06-24 (23 years ago)
Launch vehicle
Unknown
Launch site
Air Force Western Test Range (AFWTR)
Object type
Payload
Rocket body
Debris
Shape & HBR
Unknown shape, 0.1 m
Radar Cross Section
Small (<0.1 m²)

Expand to show TLE details & history
Last TLE update: 12 hours ago

TLE from 12 hours ago
0 NOAA 17 DEB
1 48710U 02032AT  25349.96306925  .00001397  00000-0  45292-3 0  9995
2 48710  98.8677 341.4599 0005069 348.5551  11.5520 14.40600482248549
Epoch: 2025-12-15T23:06Z
TLE epoch observation values (Epoch: 2025-12-15T23:06:49.183Z)
Latitude
-0.00003°
Longitude
-90.09912°
Altitude
755.909 km
Speed
7.478 km/s
True Right ascension
22h 45m 50s
True Declination
0° 00' 00"
Sunlit
Object was in daylight at epoch
Visualization orbit readout
Latitude
Unknown
Longitude
Unknown
Altitude
Unknown
Speed
Unknown
Apparent Right ascension
Unknown
Apparent Declination
Unknown
Sunlit
N/A
Visualization observer readout
Local Sidereal Time
09:25:58
Azimuth
Unknown
Elevation
Unknown
Doppler factor
Unknown
Orbital elements
Apogee altitude
757.269 km
Perigee altitude
750.039 km
Semi-major axis
7,131.791 km
Eccentricity
0.00051
Inclination
98.8677°
RAAN
341.4599°
Arg. of periapsis
348.5551°
True anomaly
11.56364°
Mean anomaly
11.552°
Eccentric anomaly
11.55782°
Mean motion
3.60367 °/min
Orbital period
99.9 mins
BSTAR
0.00045292
Loading maneuver chart data...
Computing Atmospheric mass density...
Loading historical data...
Loading historical data...
Loading historical data...
Loading historical data...
Loading historical data...
Loading historical data...
Loading historical data...

Documentation

Showing up to 5 results
|